Вернуться в каталог

DELTA 1 DEB

АктивенLEO
NORAD 10346·DEBRIS·🇺🇸 United States

Запущен Jul 14, 1977 с Cape Canaveral Space Force Station

Loading…

Ближайшие Пролёты (ближайшие 24 часа)

TLE

СвежийSource: Space-Track

Эпоха: Sep 14, 2026, 14:20 UTC

1 10346U 77065DV  26257.59726079  .00000634  00000-0  25244-3 0  9999
2 10346  29.2204 343.6273 0696013 131.7674 234.4526 13.36946162348717

Отслеживайте DELTA 1 DEB в реальном времени с AllMySat

Download on the App Store